Regional Weather Roundup
Issued by NWS

Home | Current Version | Previous Version | Text Only | Print | Product List | Glossary On
Versions: 1 2 3 4 5 6 7 8 9 10 11 12 13 14 15 16 17 18 19 20 21 22 23 24 25 26 27 28 29 30 31 32 33 34 35 36 37 38 39 40 41 42 43 44 45 46 47 48 49 50
000
ASUS44 KLIX 312010
RWRLA
LOUISIANA WEATHER ROUNDUP
NATIONAL WEATHER SERVICE NEW ORLEANS LA
200 PM CST SAT JAN 31 2015

NOTE: "FAIR" INDICATES FEW OR NO CLOUDS BELOW 12,000 FEET WITH NO
      SIGNIFICANT WEATHER AND/OR OBSTRUCTIONS TO VISIBILITY.
      SKY/WX - SKY CONDITION AND SIGNIFICANT WEATHER.
      TMP - AIR TEMPERATURE.    DP   - DEWPOINT TEMPERATURE.
      RH  - RELATIVE HUMIDITY.  PRES - PRESSURE.
      HX  - HEAT INDEX.         WCI  - WIND CHILL INDEX.

*  THESE STATIONS ARE NOT NWS OR FAA STATIONS AND ARE NOT UNDER
   NWS QUALITY CONTROL.

LAZ040-048-061>063-065-066-069-312100-
SOUTHEAST LOUISIANA

CITY           SKY/WX    TMP DP  RH WIND       PRES   REMARKS
N.O. AUDUBON     N/A     60  50  69 MISG        N/A
N.O. INTL ARPT CLOUDY    59  46  62 E12       30.21F
N.O. LAKEFRONT PTSUNNY   59  46  62 E16       30.22F
N.O. DOWNTOWN* NOT AVBL
SLIDELL        MOSUNNY   62  46  55 SE13      30.22F
BATON ROUGE    CLOUDY    61  43  51 E8        30.20F
BOOTHVILLE     MOSUNNY   65  51  60 E12       30.21F
BELLE CHASSE   CLOUDY    62  48  60 E14       30.20F
BOGALUSA*        N/A     64  35  34 SE5       30.24F
GALLIANO*      CLOUDY    65  52  62 MISG      30.19F
NEW ROADS*     FAIR      59  41  50 E5        30.20F
GONZALES*      FAIR      59  45  60 NE7       30.21F
HAMMOND*       PTSUNNY   63  46  55 S13       30.24S
HOUMA*         NOT AVBL
PORT FOURCHON* CLEAR     66  54  63 E15       30.21F

$$

LAZ041-044-053-054-312100-
SOUTHWEST LOUISIANA

CITY           SKY/WX    TMP DP  RH WIND       PRES   REMARKS
LAKE CHARLES   CLOUDY    61  47  59 E12       30.15F
LAFAYETTE      PTSUNNY   63  48  58 VRB5      30.17F
PATTERSON      CLOUDY    64  48  55 E10       30.18F
SALT POINT       N/A     66  51  58 SE8G18    30.15F
NEW IBERIA     CLOUDY    64  47  53 E14       30.17F
CHENAULT AIRPK SUNNY     61  48  63 E10       30.15F

$$

LAZ027-028-312100-
CENTRAL LOUISIANA

CITY           SKY/WX    TMP DP  RH WIND       PRES   REMARKS
FORT POLK      CLOUDY    60  45  57 S10       30.14F
ALEXANDRIA INT MOSUNNY   59  39  47 SE12      30.16F
ALEXANDRIA     MOSUNNY   62  37  39 VRB7      30.18F

$$

LAZ001-002-312100-
NORTHWEST LOUISIANA

CITY           SKY/WX    TMP DP  RH WIND       PRES   REMARKS
SHREVEPORT     CLOUDY    57  33  40 SE9       30.15F
BARKSDALE AFB  CLOUDY    56  32  40 S8        30.16F
DTN SHREVEPORT CLOUDY    55  32  41 S10       30.16F

$$

LAZ014-016-312100-
NORTHEAST LOUISIANA

CITY           SKY/WX    TMP DP  RH WIND       PRES   REMARKS
MONROE         PTSUNNY   56  31  38 SE6       30.21F
TALLULAH       PTSUNNY   58  28  32 E6        30.21F

$$




USA.gov is the U.S. government's official web portal to all federal, state and local government web resources and services.